This is the latest recevied weather packets stored in our database for station/object CA2JAT-13. If no packets are shown the sender has not sent any weather packets the latest 10 day(s).
| Time | Temp. | Humidity | Pressure | Rain* | Wind** | Luminosity | Snow |
|---|---|---|---|---|---|---|---|
| 1777822621 | 30° C | 11% | 1014 hPa | 0 mm | - | 100 W/m² | - |
| 1777820951 | 22.78° C | 10% | 1016 hPa | 0 mm | - | 539 W/m² | - |
| 1777820820 | 27.78° C | 12% | 1015 hPa | 0 mm | - | 100 W/m² | - |
| 1777819019 | 27.78° C | 12% | 1015 hPa | 0 mm | - | 100 W/m² | - |
| 1777818251 | 20° C | 20% | 1017 hPa | 0 mm | - | 428 W/m² | - |
| 1777817218 | 26.67° C | 18% | 1016 hPa | 0 mm | - | 100 W/m² | - |
| 1777815551 | 14.44° C | 36% | 1018.4 hPa | 0 mm | - | 301 W/m² | - |
| 1777815417 | 23.89° C | - | - | 0 mm | - | - | - |
| 1777813615 | 23.89° C | - | - | 0 mm | - | - | - |
| 1777812850 | 8.89° C | 41% | 1019.5 hPa | 0 mm | - | 151 W/m² | - |
| 1777811814 | 23.89° C | - | - | 0 mm | - | - | - |
| 1777810150 | 6.11° C | 55% | 1020 hPa | 0 mm | - | 6 W/m² | - |
| 1777810013 | 18.33° C | 14% | 1015 hPa | 0 mm | - | 100 W/m² | - |
| 1777808212 | 18.33° C | 14% | 1015 hPa | 0 mm | - | 100 W/m² | - |
| 1777807449 | 7.22° C | 47% | 1019.3 hPa | 0 mm | - | 0 W/m² | - |
| 1777806411 | 15.56° C | 21% | 1014 hPa | 0 mm | - | 0 W/m² | - |
| 1777804749 | 7.22° C | 51% | 1019.1 hPa | 0 mm | - | 0 W/m² | - |
| 1777804610 | 16.11° C | 16% | 1014 hPa | 0 mm | - | 0 W/m² | - |
| 1777802808 | 16.11° C | 16% | 1013 hPa | 0 mm | - | 0 W/m² | - |
| 1777802049 | 8.33° C | 48% | 1018.2 hPa | 0 mm | - | 0 W/m² | - |
| 1777801007 | 16.11° C | 16% | 1013 hPa | 0 mm | - | 0 W/m² | - |
| 1777799348 | 7.22° C | 52% | 1018.3 hPa | 0 mm | - | 0 W/m² | - |
| 1777799206 | 16.67° C | 16% | 1013 hPa | 0 mm | - | 0 W/m² | - |
| 1777797405 | 16.67° C | 16% | 1013 hPa | 0 mm | - | 0 W/m² | - |
| 1777796648 | 8.33° C | 50% | 1018.3 hPa | 0 mm | - | 0 W/m² | - |
* Rain latest hour (hover to see other rain measurements)
** Current wind speed in m/s (hover to see current wind gust speed)